Regional Weather Roundup
Issued by NWS

Home | Current Version | Previous Version | Graphics & Text | Print | Product List | Glossary On
Versions: 1 2 3 4 5 6 7 8 9 10 11 12 13 14 15 16 17 18 19 20 21 22 23 24 25 26 27
000
ASUS45 KTFX 290510
RWRMT
MONTANA REGIONAL WEATHER ROUNDUP
NATIONAL WEATHER SERVICE GREAT FALLS MT
1100 PM MDT SAT MAY 28 2016

NOTE: "FAIR" INDICATES FEW OR NO CLOUDS BELOW 12000 FEET WITH NO
SIGNIFICANT WEATHER AND/OR OBSTRUCTIONS TO VISIBILITY.

MTZ001>007-043-290600-
WEST OF THE DIVIDE

CITY           SKY/WX    TMP DP  RH WIND       PRES   REMARKS
KALISPELL      PTCLDY    44  39  82 CALM      30.04S
MISSOULA       CLEAR     48  36  63 N7        30.07R
BUTTE          CLEAR     46  33  60 N5        30.10R
MULLAN PASS    PTCLDY    40  30  67 S5        30.08F
ANACONDA         N/A     43  34  70 SW6       30.09S
DEER LODGE       N/A     45  34  65 W3        30.10R
EUREKA           N/A     52  36  54 SE5       30.04S
HAMILTON         N/A     45  36  70 CALM      30.07R
LIBBY            N/A     48  37  66 S3        30.04F
$$

MTZ008-052>055-290600-
SOUTHWEST MONTANA

CITY           SKY/WX    TMP DP  RH WIND       PRES   REMARKS
BOZEMAN        CLEAR     48  42  80 S9        30.07R
DILLON         CLEAR     46  37  71 CALM      30.06R
W YELLOWSTONE  PTCLDY    36  34  93 CALM      30.17S
ENNIS          MOCLDY    48  37  66 S10G16    30.14R
$$

MTZ009-010-012-014-046-048-049-054-290600-
EAST SLOPES AND CENTRAL MONTANA

CITY           SKY/WX    TMP DP  RH WIND       PRES   REMARKS
CUT BANK       CLEAR     44  31  60 SW8       30.00R
GREAT FALLS    CLEAR     42  32  67 W6        30.03R
MALMSTROM AFB  CLEAR     43  34  70 SW8       30.03R
HELENA         CLEAR     53  33  46 SW3       30.05R
CHOTEAU          N/A     50  30  46 SW6       30.03S
$$

MTZ011-013-016-021-045-047-050-051-290600-
NORTH CENTRAL MONTANA

CITY           SKY/WX    TMP DP  RH WIND       PRES   REMARKS
HAVRE          CLEAR     45  38  76 N3        29.97R
LEWISTOWN      CLEAR     46  36  68 S10       30.05R
N BAR RANCH      N/A     43  36  75 CALM      30.08S
CHINOOK          N/A     48  37  66 W5        29.98R
$$

MTZ017>020-022>027-061-062-290600-
NORTHEAST MONTANA

CITY           SKY/WX    TMP DP  RH WIND       PRES   REMARKS
GLASGOW        CLEAR     54  38  54 SW6       29.97R
JORDAN           N/A     46  40  79 W6        30.01R
SIDNEY         CLEAR     52  45  77 NW5       29.97R
WOLF POINT     PTCLDY    47  42  83 W3        29.98R
PLENTYWOOD       N/A     54  48  82 CALM      29.96S
POPLAR           N/A     55  46  71 CALM      29.97S
$$

MTZ028>42-056>058-290600-
SOUTHCENTRAL AND SOUTHEAST MONTANA

CITY           SKY/WX    TMP DP  RH WIND       PRES   REMARKS
BAKER          CLEAR     48  40  73 CALM      30.02R
BILLINGS       PTCLDY    57  42  57 S3        30.05R
LIVINGSTON     MOCLDY    50  41  71 W7        30.06R
MILES CITY     MOCLDY    58  43  57 N6        30.01R
FORSYTH          N/A     59  45  58 CALM      30.02R
$$

REGIONAL REPORTS...DAKOTAS

CITY           SKY/WX    TMP DP  RH WIND       PRES   REMARKS
WILLISTON      CLEAR     49  47  93 CALM      29.96R
MINOT          CLOUDY    59  56  89 N9        29.93S
DICKINSON      CLEAR     48  47  96 SW3       29.96F FOG
BEACH            N/A     45  45 100 SW5       30.03R
CROSBY           N/A     50  50 100 SW7       29.96S
WATFORD CITY     N/A     48  48 100 SW3       29.97R
BISMARCK       CLEAR     56  55  97 W5        29.95R
GRAND FORKS    MOCLDY    60  59  96 NW5       29.85F
FARGO          MOCLDY    61  58  90 N6        29.85F
BUFFALO SD       N/A     56  42  59 N10       29.96R
RAPID CITY     CLOUDY    52  46  80 NW10      30.03R
$$

REGIONAL REPORTS...WYOMING/IDAHO/WASHINGTON

CITY           SKY/WX    TMP DP  RH WIND       PRES   REMARKS
GILLETTE       CLEAR     41  38  89 SW3       30.07R
SHERIDAN       CLEAR     48  44  86 CALM      30.06S
BUFFALO WY     CLOUDY    51  45  79 SW5       30.11R
CODY           CLEAR     52  39  62 CALM      30.09S
YELLOWSTONE LA   N/A     35  30  82 CALM      30.23R
IDAHO FALLS    CLEAR     51  32  48 SE8       30.10R
SALMON         CLEAR     48  36  61 CALM      30.03R
BOISE          CLEAR     58  31  35 SW3       30.02R
SPOKANE        MOCLDY    56  36  47 S7        30.01S
$$

REGIONAL REPORTS...ALBERTA

CITY           SKY/WX    TMP DP  RH WIND       PRES   REMARKS
EDMONTON       CLEAR     46  41  81 SE7       29.85F
CALGARY        MOCLDY    54  30  40 W8        29.87S
LETHBRIDGE     CLEAR     46  32  57 SW13      29.94R
MEDICINE HAT   CLEAR     50  37  62 S6        29.91R
WATERTON GATE    N/A     48  28  46 SW15G22     N/A
CARDSTON         N/A     46  30  53 SW5         N/A
MILK RIVER       N/A     41  34  75 NW7         N/A
$$

REGIONAL REPORTS...SASKATCHEWAN

CITY           SKY/WX    TMP DP  RH WIND       PRES   REMARKS
SWIFT CURRENT  CLEAR     50  46  87 W3        29.92S
REGINA         PTCLDY    48  46  93 SW5       29.91F
SASKATOON      PTCLDY    50  50 100 SW6       29.88S
CYPRESS HILLS    N/A     43  30  61 W5          N/A
VAL MARIE        N/A     43  39  87 SW1         N/A
ROCKGLEN         N/A     48  45  87 W5          N/A
$$




USA.gov is the U.S. government's official web portal to all federal, state and local government web resources and services.